Prague, Czech Republic

7:31 PM CET on March 25, 2017 (GMT +0100)
Prague-Ruzyne Airport

Weather History for LKPR - November, 2012

Change the Weather History Date:

Friday, November 9, 2012

  Actual Average Record
Temperature  
Mean Temperature 41 °F -  
Max Temperature 49 °F 41 °F 59 °F (2008)
Min Temperature 33 °F 30 °F 28 °F (2003)
Degree Days  
Heating Degree Days 24    
Moisture  
Dew Point 38 °F    
Average Humidity 83    
Maximum Humidity 93    
Minimum Humidity 64    
Precipitation  
Precipitation 0.00 in 0.04 in - ()
Sea Level Pressure  
Sea Level Pressure 30.06 in    
Wind  
Wind Speed 10 mph ()    
Max Wind Speed 15 mph    
Max Gust Speed -    
Visibility 7.4 miles    
Events      
Averages and records for this station are not official NWS values.
T = Trace of Precipitation, MM = Missing Value Source: Averaged Metar Reports

Daily Weather History Graph

Daily Weather History Graph

Search for Another Location

Airport or City:

Trip Planner

Search our weather history database for the weather conditions in past years. The results will help you decide how hot, cold, wet, or windy it might be!

Date:

Astronomy

Nov. 09, 2012 Rise Set
Actual Time 7:06 AM CET 4:26 PM CET
Civil Twilight 6:31 AM CET 5:01 PM CET
Nautical Twilight 5:52 AM CET 5:40 PM CET
Astronomical Twilight 5:14 AM CET 6:17 PM CET
Moon 1:17 AM CET (11/9) 1:55 PM CET (11/9)
Length of Visible Light 10h 29m
Length of Day
9h 19m
Waning Crescent, 25% of the Moon is Illuminated
Nov 9
Waning Crescent
Nov 13
New
Nov 20
First Quarter
Nov 28
Full
Dec 6
Last Quarter

Hourly Weather History & Observations

Time (CET) Temp. Windchill Dew Point Humidity Pressure Visibility Wind Dir Wind Speed Gust Speed Precip Events Conditions
12:00 AM 42.8 °F 35.8 °F 37.4 °F 81% 30.04 in 6.2 mi WSW 13.8 mph - N/A   Partly Cloudy
12:30 AM 42.8 °F 36.2 °F 37.4 °F 81% 30.04 in 6.2 mi WSW 12.7 mph - N/A   Overcast
1:00 AM 43 °F - 39 °F 79% 30.07 in 16 mi WSW 13.4 mph - -   Partly Cloudy
1:00 AM 42.8 °F 35.8 °F 39.2 °F 87% 30.04 in 6.2 mi WSW 13.8 mph - N/A   Mostly Cloudy
1:30 AM 42.8 °F 35.8 °F 39.2 °F 87% 30.04 in 6.2 mi SW 13.8 mph - N/A   Mostly Cloudy
2:00 AM 42.8 °F 35.8 °F 39.2 °F 87% 30.04 in - WSW 13.8 mph - N/A   Clear
2:30 AM 41.0 °F 33.1 °F 39.2 °F 93% 30.04 in - SW 15.0 mph - N/A   Clear
3:00 AM 41.0 °F 33.5 °F 39.2 °F 93% 30.04 in - SW 13.8 mph - N/A   Clear
3:30 AM 41.0 °F 33.9 °F 39.2 °F 93% 30.04 in - WSW 12.7 mph - N/A   Clear
4:00 AM 41.0 °F 33.9 °F 39.2 °F 93% 30.04 in - WSW 12.7 mph - N/A   Clear
4:30 AM 41.0 °F 33.9 °F 39.2 °F 93% 30.04 in - WSW 12.7 mph - N/A   Clear
5:00 AM 42.8 °F 36.6 °F 39.2 °F 87% 30.04 in - WSW 11.5 mph - N/A   Clear
5:30 AM 42.8 °F 37.0 °F 39.2 °F 87% 30.06 in 6.2 mi WSW 10.4 mph - N/A   Partly Cloudy
6:00 AM 42.8 °F 37.0 °F 39.2 °F 87% 30.04 in - WSW 10.4 mph - N/A   Clear
6:30 AM 41.0 °F 34.7 °F 39.2 °F 93% 30.06 in - SW 10.4 mph - N/A   Clear
7:00 AM 41 °F - 39 °F 89% 30.11 in 12 mi SW 8.9 mph - -   Partly Cloudy
7:00 AM 41.0 °F 34.7 °F 39.2 °F 93% 30.06 in 6.2 mi SW 10.4 mph - N/A   Scattered Clouds
7:30 AM 41.0 °F 34.3 °F 39.2 °F 93% 30.06 in 6.2 mi SW 11.5 mph - N/A   Partly Cloudy
8:00 AM 42.8 °F 36.6 °F 39.2 °F 87% 30.06 in 6.2 mi SW 11.5 mph - N/A   Scattered Clouds
8:30 AM 42.8 °F 35.8 °F 39.2 °F 87% 30.06 in 6.2 mi WSW 13.8 mph - N/A   Mostly Cloudy
9:00 AM 44.6 °F 38.4 °F 39.2 °F 81% 30.09 in 6.2 mi WSW 12.7 mph - N/A   Scattered Clouds
9:30 AM 44.6 °F 38.1 °F 39.2 °F 81% 30.09 in 6.2 mi WSW 13.8 mph - N/A   Partly Cloudy
10:00 AM 44.6 °F 38.4 °F 41.0 °F 87% 30.09 in 6.2 mi WSW 12.7 mph - N/A   Partly Cloudy
10:30 AM 46.4 °F 40.7 °F 41.0 °F 81% 30.09 in 6.2 mi WSW 12.7 mph - N/A   Partly Cloudy
11:00 AM 46.4 °F 40.7 °F 41.0 °F 81% 30.12 in 6.2 mi WSW 12.7 mph - N/A   Partly Cloudy
11:30 AM 46.4 °F 40.7 °F 39.2 °F 76% 30.12 in 6.2 mi SW 12.7 mph - N/A   Partly Cloudy
12:00 PM 48.2 °F - 39.2 °F 71% 30.09 in 6.2 mi WSW 11.5 mph - N/A   Partly Cloudy
12:30 PM 48.2 °F - 39.2 °F 71% 30.09 in 6.2 mi SW 11.5 mph - N/A   Partly Cloudy
1:00 PM 49 °F - 40 °F 64% 30.12 in 19 mi WSW 8.9 mph - -   Mostly Cloudy
1:00 PM 50.0 °F - 39.2 °F 66% 30.09 in 6.2 mi WSW 9.2 mph - N/A   Partly Cloudy
1:30 PM 48.2 °F - 39.2 °F 71% 30.09 in 6.2 mi SW 6.9 mph - N/A   Partly Cloudy
2:00 PM 48.2 °F - 39.2 °F 71% 30.06 in 6.2 mi South 3.5 mph - N/A   Partly Cloudy
2:30 PM 50.0 °F - 39.2 °F 66% 30.06 in 6.2 mi South 4.6 mph - N/A   Scattered Clouds
3:00 PM 46.4 °F 43.5 °F 39.2 °F 76% 30.06 in 6.2 mi SSW 5.8 mph - N/A   Scattered Clouds
3:30 PM 48.2 °F - 41.0 °F 76% 30.06 in 6.2 mi SSE 5.8 mph - N/A   Scattered Clouds
4:00 PM 46.4 °F 44.3 °F 39.2 °F 76% 30.06 in 6.2 mi South 4.6 mph - N/A   Scattered Clouds
4:30 PM 44.6 °F 42.2 °F 37.4 °F 76% 30.06 in 6.2 mi South 4.6 mph - N/A   Scattered Clouds
5:00 PM 44.6 °F 42.2 °F 39.2 °F 81% 30.06 in 6.2 mi South 4.6 mph - N/A   Mostly Cloudy
5:30 PM 44.6 °F 42.2 °F 39.2 °F 81% 30.06 in 6.2 mi SSW 4.6 mph - N/A   Mostly Cloudy
6:00 PM 42.8 °F 41.1 °F 37.4 °F 81% 30.06 in 6.2 mi South 3.5 mph - N/A   Partly Cloudy
6:30 PM 41.0 °F 39.0 °F 35.6 °F 81% 30.04 in - SE 3.5 mph - N/A   Clear
7:00 PM 41 °F - 36 °F 77% 30.10 in 16 mi ESE 4.5 mph - -   Clear
7:00 PM 41.0 °F 39.0 °F 35.6 °F 81% 30.06 in - SE 3.5 mph - N/A   Clear
7:30 PM 41.0 °F 38.0 °F 35.6 °F 81% 30.04 in - East 4.6 mph - N/A   Clear
8:00 PM 39.2 °F 35.9 °F 35.6 °F 87% 30.04 in - East 4.6 mph - N/A   Clear
8:30 PM 39.2 °F 35.9 °F 35.6 °F 87% 30.04 in - ESE 4.6 mph - N/A   Clear
9:00 PM 39.2 °F 35.9 °F 35.6 °F 87% 30.04 in - SE 4.6 mph - N/A   Clear
9:30 PM 39.2 °F 35.9 °F 35.6 °F 87% 30.01 in - SE 4.6 mph - N/A   Clear
10:00 PM 39.2 °F 35.9 °F 35.6 °F 87% 30.01 in - SE 4.6 mph - N/A   Clear
10:30 PM 35.6 °F 31.7 °F 33.8 °F 93% 30.01 in - ESE 4.6 mph - N/A   Clear
11:00 PM 33.8 °F 28.6 °F 32.0 °F 93% 29.98 in - East 5.8 mph - N/A   Clear
11:30 PM 33.8 °F 29.6 °F 32.0 °F 93% 29.98 in - ESE 4.6 mph - N/A   Clear